When you browse on this site, cookies collect data to enhance your experience and personalize the content and advertising you see.
Visit our Privacy Policy to learn more. By continuing to use the site, you agree to this use of cookies and data.
  • En España
  • Lista de países
  • Para 7 días
  • Temperatura del agua
  • El tiempo en el mapa
  • Informadores
  • user-avatar
    Iniciar sesión

    Tiempo cada hora Rassoha

    Hoy, 23 Febrero, Domingo

    Tiempo Temperatura Precipitaciones Viento Presión Humedad
    00:00 -5°C° 0 mm 8 mps 740 mmHg 89%
    01:00 -5°C° 0 mm 8 mps 739 mmHg 88%
    02:00 -5°C° 0 mm 8 mps 738 mmHg 87%
    03:00 -5°C° 0.1 mm 9 mps 737 mmHg 88%
    04:00 -5°C° 0.1 mm 9 mps 735 mmHg 89%
    05:00 -5°C° 0.1 mm 9 mps 734 mmHg 90%
    06:00 -5°C° 0.9 mm 9 mps 733 mmHg 92%
    07:00 -4°C° 0.9 mm 9 mps 732 mmHg 94%
    08:00 -4°C° 0.9 mm 9 mps 732 mmHg 96%
    09:00 -4°C° 0.5 mm 9 mps 731 mmHg 96%
    10:00 -4°C° 0.5 mm 9 mps 730 mmHg 97%
    11:00 -4°C° 0.5 mm 8 mps 729 mmHg 98%
    12:00 -2°C° 0.5 mm 8 mps 729 mmHg 98%
    13:00 -2°C° 0.5 mm 7 mps 728 mmHg 98%
    14:00 -2°C° 0.5 mm 6 mps 728 mmHg 98%
    15:00 -2°C° 0.2 mm 6 mps 728 mmHg 95%
    16:00 -2°C° 0.2 mm 6 mps 728 mmHg 93%
    17:00 -1°C° 0.2 mm 5 mps 727 mmHg 91%
    18:00 -2°C° 0 mm 5 mps 728 mmHg 90%
    19:00 -2°C° 0 mm 5 mps 728 mmHg 89%
    20:00 -3°C° 0 mm 4 mps 728 mmHg 88%
    21:00 -3°C° 0 mm 4 mps 727 mmHg 88%
    22:00 -3°C° 0 mm 4 mps 727 mmHg 88%
    23:00 -3°C° 0 mm 4 mps 727 mmHg 88%

    Mañana, 24 Febrero, Lunes

    Tiempo Temperatura Precipitaciones Viento Presión Humedad
    00:00 -4°C° 0 mm 4 mps 727 mmHg 89%
    01:00 -4°C° 0 mm 4 mps 727 mmHg 90%
    02:00 -4°C° 0 mm 4 mps 727 mmHg 91%
    03:00 -4°C° 0 mm 4 mps 726 mmHg 92%
    04:00 -5°C° 0 mm 4 mps 726 mmHg 93%
    05:00 -5°C° 0 mm 4 mps 725 mmHg 94%
    06:00 -5°C° 0 mm 3 mps 725 mmHg 94%
    07:00 -4°C° 0 mm 3 mps 725 mmHg 94%
    08:00 -4°C° 0 mm 3 mps 725 mmHg 94%
    09:00 -4°C° 0 mm 3 mps 725 mmHg 95%
    10:00 -2°C° 0 mm 2 mps 725 mmHg 95%
    11:00 -1°C° 0 mm 2 mps 724 mmHg 95%
    12:00 -1°C° 0 mm 2 mps 724 mmHg 95%
    13:00 +1°C° 0 mm 1 mps 724 mmHg 94%
    14:00 +1°C° 0 mm 1 mps 724 mmHg 94%
    15:00 +1°C° 0 mm 1 mps 724 mmHg 93%
    16:00 +1°C° 0 mm 1 mps 724 mmHg 93%
    17:00 0°C° 0 mm 1 mps 725 mmHg 93%
    18:00 -2°C° 0 mm 2 mps 725 mmHg 91%
    19:00 -2°C° 0 mm 3 mps 725 mmHg 90%
    20:00 -2°C° 0 mm 3 mps 726 mmHg 89%
    21:00 -3°C° 0 mm 4 mps 726 mmHg 88%
    22:00 -4°C° 0 mm 5 mps 727 mmHg 87%
    23:00 -4°C° 0 mm 6 mps 727 mmHg 87%

    Pasado mañana, 25 Febrero, Martes

    Tiempo Temperatura Precipitaciones Viento Presión Humedad
    00:00 -5°C° 0 mm 6 mps 728 mmHg 84%
    01:00 -5°C° 0 mm 6 mps 728 mmHg 82%
    02:00 -5°C° 0 mm 6 mps 729 mmHg 80%
    03:00 -6°C° 0 mm 6 mps 729 mmHg 80%
    04:00 -6°C° 0 mm 5 mps 730 mmHg 80%
    05:00 -6°C° 0 mm 5 mps 730 mmHg 80%
    06:00 -6°C° 0 mm 5 mps 730 mmHg 80%
    07:00 -6°C° 0 mm 5 mps 731 mmHg 81%
    08:00 -6°C° 0 mm 5 mps 732 mmHg 81%
    09:00 -5°C° 0 mm 5 mps 732 mmHg 78%
    10:00 -4°C° 0 mm 5 mps 732 mmHg 74%
    11:00 -4°C° 0 mm 5 mps 732 mmHg 70%
    12:00 -2°C° 0 mm 5 mps 732 mmHg 70%
    13:00 -2°C° 0 mm 4 mps 732 mmHg 69%
    14:00 -1°C° 0 mm 4 mps 732 mmHg 68%
    15:00 -2°C° 0 mm 4 mps 732 mmHg 71%
    16:00 -3°C° 0 mm 4 mps 732 mmHg 75%
    17:00 -4°C° 0 mm 3 mps 732 mmHg 79%
    18:00 -4°C° 0 mm 4 mps 732 mmHg 81%
    19:00 -4°C° 0 mm 4 mps 732 mmHg 83%
    20:00 -4°C° 0 mm 4 mps 732 mmHg 85%
    21:00 -4°C° 0 mm 4 mps 731 mmHg 88%
    22:00 -4°C° 0 mm 4 mps 731 mmHg 91%
    23:00 -5°C° 0 mm 5 mps 731 mmHg 94%

    26 Febrero, Miércoles

    Tiempo Temperatura Precipitaciones Viento Presión Humedad
    00:00 -5°C° 0.1 mm 5 mps 730 mmHg 95%
    01:00 -5°C° 0.1 mm 5 mps 730 mmHg 95%
    02:00 -4°C° 0.1 mm 5 mps 729 mmHg 96%
    03:00 -2°C° 0.2 mm 5 mps 729 mmHg 96%
    04:00 -2°C° 0.2 mm 5 mps 729 mmHg 97%
    05:00 -1°C° 0.2 mm 5 mps 728 mmHg 97%
    06:00 -1°C° 0.1 mm 5 mps 728 mmHg 97%
    07:00 -1°C° 0.1 mm 5 mps 728 mmHg 97%
    08:00 -2°C° 0.1 mm 6 mps 728 mmHg 96%
    09:00 -2°C° 0 mm 6 mps 727 mmHg 96%
    10:00 -2°C° 0 mm 6 mps 727 mmHg 96%
    11:00 -1°C° 0 mm 6 mps 727 mmHg 96%
    12:00 -1°C° 0.1 mm 6 mps 727 mmHg 96%
    13:00 -1°C° 0.1 mm 6 mps 727 mmHg 96%
    14:00 -1°C° 0.1 mm 6 mps 727 mmHg 96%
    15:00 -1°C° 0.1 mm 5 mps 728 mmHg 96%
    16:00 -1°C° 0.1 mm 5 mps 728 mmHg 96%
    17:00 -1°C° 0.1 mm 4 mps 728 mmHg 96%
    18:00 0°C° 0 mm 3 mps 728 mmHg 97%
    19:00 0°C° 0 mm 3 mps 729 mmHg 97%
    20:00 +1°C° 0 mm 2 mps 729 mmHg 97%
    21:00 +1°C° 0 mm 2 mps 729 mmHg 97%
    22:00 +1°C° 0 mm 2 mps 729 mmHg 97%
    23:00 +1°C° 0 mm 2 mps 729 mmHg 97%

    27 Febrero, Jueves

    Tiempo Temperatura Precipitaciones Viento Presión Humedad
    00:00 +1°C° 0.1 mm 2 mps 729 mmHg 97%
    01:00 +1°C° 0.1 mm 2 mps 729 mmHg 98%
    02:00 0°C° 0.1 mm 3 mps 728 mmHg 98%
    03:00 0°C° 0.3 mm 3 mps 728 mmHg 97%
    04:00 0°C° 0.3 mm 3 mps 728 mmHg 97%
    05:00 -1°C° 0.3 mm 4 mps 728 mmHg 97%
    06:00 -1°C° 0.3 mm 4 mps 728 mmHg 97%
    07:00 -1°C° 0.3 mm 4 mps 727 mmHg 97%
    08:00 -1°C° 0.3 mm 4 mps 727 mmHg 97%
    09:00 -1°C° 0.3 mm 4 mps 727 mmHg 97%
    10:00 -1°C° 0.3 mm 4 mps 727 mmHg 98%
    11:00 -1°C° 0.3 mm 4 mps 727 mmHg 98%
    12:00 -1°C° 0.2 mm 4 mps 727 mmHg 98%
    13:00 0°C° 0.2 mm 4 mps 727 mmHg 98%
    14:00 0°C° 0.2 mm 4 mps 727 mmHg 97%
    15:00 0°C° 0.2 mm 4 mps 727 mmHg 97%
    16:00 0°C° 0.2 mm 4 mps 727 mmHg 97%
    17:00 0°C° 0.2 mm 4 mps 727 mmHg 97%
    18:00 0°C° 0.1 mm 4 mps 728 mmHg 97%
    19:00 0°C° 0.1 mm 4 mps 728 mmHg 97%
    20:00 0°C° 0.1 mm 4 mps 729 mmHg 97%
    21:00 0°C° 0 mm 4 mps 729 mmHg 97%
    22:00 0°C° 0 mm 4 mps 729 mmHg 97%
    23:00 0°C° 0 mm 4 mps 729 mmHg 98%

    28 Febrero, Viernes

    Tiempo Temperatura Precipitaciones Viento Presión Humedad
    00:00 +1°C° 0 mm 3 mps 730 mmHg 97%
    01:00 +1°C° 0 mm 3 mps 730 mmHg 97%
    02:00 +1°C° 0 mm 3 mps 731 mmHg 97%
    03:00 0°C° 0 mm 3 mps 731 mmHg 96%
    04:00 +1°C° 0 mm 2 mps 731 mmHg 96%
    05:00 +1°C° 0 mm 2 mps 732 mmHg 96%
    06:00 +1°C° 0 mm 2 mps 732 mmHg 95%
    07:00 +1°C° 0 mm 2 mps 732 mmHg 95%
    08:00 -1°C° 0 mm 2 mps 733 mmHg 94%
    09:00 +1°C° 0 mm 2 mps 733 mmHg 93%
    10:00 +1°C° 0 mm 2 mps 733 mmHg 92%
    11:00 +1°C° 0 mm 2 mps 734 mmHg 91%
    12:00 +2°C° 0 mm 2 mps 734 mmHg 89%
    13:00 +3°C° 0 mm 1 mps 734 mmHg 87%
    14:00 +3°C° 0 mm 1 mps 734 mmHg 85%
    15:00 +3°C° 0 mm 1 mps 735 mmHg 85%
    16:00 +3°C° 0 mm 1 mps 735 mmHg 86%
    17:00 +2°C° 0 mm 1 mps 735 mmHg 86%
    18:00 +2°C° 0 mm 1 mps 736 mmHg 86%
    19:00 0°C° 0 mm 0 mps 736 mmHg 86%
    20:00 0°C° 0 mm 0 mps 736 mmHg 86%
    21:00 +1°C° 0 mm 1 mps 736 mmHg 87%
    22:00 +1°C° 0 mm 1 mps 736 mmHg 89%
    23:00 -2°C° 0 mm 2 mps 736 mmHg 91%
    Mostrar más